Tracking 19475 objects as of 18-Jan-2019
HD Live streaming from Space Station
objects crossing your sky now

GAOFEN 1-04

Track GAOFEN 1-04 now!
10-day predictions


NORAD ID: 43262
Int'l Code: 2018-031D
Perigee: 643.8 km
Apogee: 651.7 km
Inclination: 98.0 °
Period: 97.5 minutes
Semi major axis: 7018 km
RCS: Unknown
Launch date: March 31, 2018
Source: People's Republic of China (PRC)
Launch site: Taiyaun Space Center, China (TSC)
aabbcc
Your satellite tracking list
Your tracking list is empty




NASA's NSSDC Master Catalog

Two Line Element Set (TLE):
1 43262U 18031D   19018.46066032  .00000038  00000-0  12873-4 0  9992
2 43262  98.0120  97.4296 0005589  70.4185 289.7636 14.76425816 43279
Source of the keplerian elements: AFSPC